Home   Weather   Kenora   Past weeks

Flag for Canada Past Weather in Kenora, Ontario, Canada — Yesterday and Last 2 Weeks

Now
32 °F

Fog.


Feels Like: 27 °F
Forecast: 32 / 34 °F
Wind: 5 mph from East

Location: Kenora

Current Time: Jan 22, 2017 at 8:44:53 am

Latest Report: Jan 22, 2017 at 8:00 am


Visibility: 0 mi

Pressure: 29.72 "Hg

Humidity: 100%

Dew Point: 32 °F

Location of KenoraLocation

Past Weather in Kenora — Graph

°F

Kenora Temperature Yesterday

Maximum temperature yesterday: 34 °F (at 12:00 am)
Minimum temperature yesterday: 32 °F (at 1:00 am)
Average temperature yesterday: 33 °F

High & Low Weather Summary for the Past Weeks

 TemperatureHumidityPressure
High37 °F (Jan 20, 2:00 pm)100% (Jan 19, 9:00 pm)30.79 "Hg (Jan 19, 9:00 pm)
Low-27 °F (Jan 13, 6:00 am)63% (Jan 16, 1:00 pm)29.45 "Hg (Jan 10, 1:00 pm)
Average10 °F83%29.97 "Hg
* Reported Jan 7 7:00 am — Jan 22 7:00 am, Kenora, Weather by CustomWeather, © 2017

Note: Actual official high and low records may vary slightly from our data, if they occured in-between our weather recording intervals... More about our weather records

Advertising

Kenora Weather History for the Previous 24 Hours

Scroll right to see more
 ConditionsComfort  
Time TempWeatherWind HumidityBarometerVisibility
7:00 am
Sun, Jan 22
32 °FFog.3 mph100%29.72 "Hg0 mi
6:00 am32 °FFog.2 mph100%29.71 "Hg0 mi
5:00 am32 °FFog.2 mph100%29.70 "Hg0 mi
4:00 am32 °FFog.3 mph100%29.69 "Hg0 mi
3:00 am34 °FFog.3 mph100%29.68 "Hg0 mi
2:00 am34 °FFog.3 mph100%29.66 "Hg1 mi
1:00 am34 °FFog.2 mph100%29.66 "Hg0 mi
12:00 am34 °FFog.3 mph100%29.65 "Hg0 mi
11:00 pm
Sat, Jan 21
34 °FFog.2 mph100%29.65 "Hg0 mi
10:00 pm34 °FFog.6 mph100%29.63 "Hg0 mi
9:00 pm34 °FFog.6 mph100%29.62 "Hg0 mi
8:00 pm34 °FFog.6 mph100%29.61 "Hg0 mi
7:46 pm34 °FFog.5 mph100%29.61 "Hg1 mi
7:00 pm34 °FFog.7 mph100%29.60 "Hg4 mi
6:00 pm34 °FLow clouds.3 mph100%29.59 "Hg10 mi
5:00 pm34 °FLow clouds.3 mph100%29.58 "Hg10 mi
4:00 pm34 °FLow clouds.5 mph100%29.57 "Hg10 mi
3:00 pm34 °FLow clouds.3 mph100%29.54 "Hg10 mi
2:24 pm34 °FLow clouds.7 mph100%29.53 "Hg10 mi
2:00 pm34 °FFog.6 mph100%29.52 "Hg3 mi
1:40 pm34 °FFog.6 mph100%29.52 "Hg2 mi
1:00 pm34 °FLow clouds.7 mph100%29.53 "Hg8 mi
12:00 pm34 °FFog.6 mph100%29.54 "Hg4 mi
11:33 am34 °FFog.7 mph100%29.54 "Hg3 mi
11:00 am34 °FFog.8 mph100%29.55 "Hg2 mi
10:38 am34 °FFog.7 mph93%29.55 "Hg2 mi
10:00 am32 °FFog.8 mph100%29.55 "Hg0 mi
9:12 am32 °FFog.6 mph100%29.54 "Hg0 mi
9:00 am32 °FFog.7 mph100%29.54 "Hg1 mi
8:00 am32 °FIce fog.8 mph100%29.55 "Hg1 mi
Weather by CustomWeather, © 2017

See weather overviewHow to use our weather pages